User: anonymous   Login
Location: Unspecified
(0.0000°N, 0.0000°E)
Time: 01:20:28
(UTC+00:00)
Language:

NOAA 8 - Orbit

View from above orbital plane
View from above orbital plane
View from above satellite
View from above satellite

Ground track
Ground track

The orbit data is extracted from the following two-line orbital elements,

1 13923U 83022A   18202.57216230 +.00000021 +00000-0 +25323-4 0  9994
2 13923 098.5472 188.8827 0016433 071.8145 288.4824 14.28646460838668
Epoch (UTC): 21 July 2018 13:43:54
Eccentricity: 0.0016433
inclination: 98.5472°
perigee height: 784 km
apogee height: 808 km
right ascension of ascending node: 188.8827°
argument of perigee: 71.8145°
revolutions per day: 14.28646460
mean anomaly at epoch: 288.4824°
orbit number at epoch: 83866

The dashed part of the orbit path shows where the satellite is in the earth's shadow,  

DLR